Hourly Data Report for September 10, 2017

All times are specified in Local Standard Time (LST). Add 1 hour to adjust for Daylight Saving Time where and when it is observed.

KAMLOOPS A
BRITISH COLUMBIA

50°42'09.000" N
120°26'55.000" W
345.30 m
1163781
71887
YKA

Download Data

Hourly Data (September 2017)
Hourly Data Report for September 10, 2017
Temp Definition
°C
Dew Point Temp Definition
°C
Rel Hum Definition
%
Wind Dir Definition
10's deg

Wind Spd Definition
km/h
Visibility Definition
km
Stn Press Definition
kPa
Hmdx Definition


Wind Chill Definition


Weather Definition


TIME
00:00 Legend Double Dagger 12.8 5.8 62 26 3 64.4 97.78     LegendNANA
01:00 Legend Double Dagger 10.3 5.7 73 32 5 64.4 97.82     Mostly Cloudy
02:00 Legend Double Dagger 11.4 6.5 72 36 1 64.4 97.88     LegendNANA
03:00 Legend Double Dagger 10.1 6.5 78 36 1 64.4 97.97     LegendNANA
04:00 Legend Double Dagger 9.4 6.2 80 36 2 64.4 98.04     Mostly Cloudy
05:00 Legend Double Dagger 10.5 6.1 74 10 4 64.4 98.09     LegendNANA
06:00 Legend Double Dagger 9.7 6.8 82 8 9 64.4 98.15     LegendNANA
07:00 Legend Double Dagger 11.5 7.8 77 8 8 64.4 98.22     Mostly Cloudy
08:00 Legend Double Dagger 13.3 7.6 68 8 8 64.4 98.22     LegendNANA
09:00 Legend Double Dagger 15.2 7.9 62 14 5 64.4 98.22     LegendNANA
10:00 Legend Double Dagger 17.0 7.5 53 12 7 64.4 98.17     Mostly Cloudy
11:00 Legend Double Dagger 19.7 5.9 40 12 8 64.4 98.11     LegendNANA
12:00 Legend Double Dagger 22.4 5.3 33 10 9 64.4 98.02     LegendNANA
13:00 Legend Double Dagger 23.9 4.6 28 11 15 64.4 97.96     Mostly Cloudy
14:00 Legend Double Dagger 24.6 3.5 25 6 8 64.4 97.91     LegendNANA
15:00 Legend Double Dagger 26.1 3.7 23 9 9 64.4 97.81 25   LegendNANA
16:00 Legend Double Dagger 26.4 4.3 24 7 8 64.4 97.78 25   Mostly Cloudy
17:00 Legend Double Dagger 24.9 5.3 28 24 13 64.4 97.78     LegendNANA
18:00 Legend Double Dagger 23.8 5.6 31 22 21 64.4 97.76     LegendNANA
19:00 Legend Double Dagger 22.2 7.0 37 18 22 64.4 97.77     Mostly Cloudy
20:00 Legend Double Dagger 20.7 6.5 39 19 8 64.4 97.83     LegendNANA
21:00 Legend Double Dagger 18.9 6.9 45 6 9 64.4 97.86     LegendNANA
22:00 Legend Double Dagger 18.4 7.0 47 4 3 64.4 97.91     Mainly Clear
23:00 Legend Double Dagger 17.0 6.7 50 3 5 64.4 97.93     LegendNANA

Notes on Data Quality.

Legend

  • E = Estimated
  • M = Missing
  • NA = Not Available
  • ‡ = Partner data that is not subject to review by the National Climate Archives
Date modified: